SCP
0 0 0 0 0 0 0 0 0 0 0 0 0 0 0 0 0 0 0 0 0 0 0 0 0 0 1 1 1 1 1 0 0 0 0 1 1 1 1 1 1 1 1 1
0 0 0 0 0 0 0 0 0 0 0 0 0 0 0 0 0 0 0 0 0 0 0 0 0 0 1 1 1 1 1 1 0 0 0 0 1 1 1 1 1 1 1 1
0 0 0 0 0 0 0 0 0 0 0 0 0 0 0 0 0 0 0 0 0 0 0 0 0 0 0 1 1 1 1 1 1 1 0 0 0 1 0 0 1 1 1 1
0 0 0 0 0 0 0 0 0 0 0 0 0 0 0 0 0 0 0 0 0 0 0 0 0 0 0 0 1 1 1 1 1 1 0 0 0 0 0 0 0 0 0 0
0 0 0 0 0 0 0 0 0 0 0 0 0 0 0 0 0 0 0 0 0 0 0 0 0 0 0 0 1 1 1 1 1 1 1 0 0 0 0 0 0 0 0 0
0 0 0 0 0 0 0 0 0 0 0 0 0 0 0 0 0 0 0 0 0 0 0 0 0 0 0 0 1 1 1 1 1 1 1 0 0 0 0 0 0 0 0 0
0 0 0 0 0 0 0 0 0 0 0 0 0 0 0 0 0 0 0 0 0 0 0 0 0 0 0 0 0 1 1 1 1 1 1 0 0 0 0 0 0 0 0 0
0 0 0 0 0 0 0 0 0 0 0 0 0 0 0 0 0 0 0 0 0 0 0 0 0 0 0 0 0 0 0 1 1 1 1 1 0 0 0 0 0 0 0 0
0 0 0 0 0 0 0 0 0 0 0 0 0 0 0 0 0 0 0 0 0 0 0 0 0 0 0 0 0 0 0 0 0 1 1 1 0 0 0 0 0 0 0 0
0 0 0 0 0 0 0 0 0 0 0 0 0 0 0 0 0 0 0 0 0 0 0 -0 0 0 0 0 0 0 0 0 0 0 0 0 0 1 0 0 0 0 0 0
0 0 0 0 0 0 0 0 0 0 0 0 0 0 0 0 0 0 0 0 0 0 0 -0 0 0 0 0 0 0 0 0 0 0 0 0 0 0 1 0 0 0 0 0
0 0 0 0 0 0 0 0 0 0 0 0 0 0 0 0 0 0 0 0 0 0 0 -0 -0 0 0 0 0 0 0 0 0 0 0 0 0 0 0 0 0 0 0 0
0 0 0 0 0 0 0 0 0 0 0 0 0 0 0 0 0 0 0 0 0 0 0 0 0 0 0 0 0 0 0 0 0 0 0 0 0 0 0 0 0 0 0 0
0 0 0 0 0 0 0 0 0 0 0 0 0 0 0 0 0 0 0 0 0 0 0 0 0 0 0 0 0 0 0 0 0 0 0 0 0 0 0 0 0 0 0 0
0 0 0 0 0 0 0 0 0 0 0 0 0 0 0 0 0 0 0 0 0 0 0 0 0 0 0 0 0 0 0 0 0 0 0 0 0 0 0 0 0 0 0 0
0 0 0 0 0 0 0 0 0 0 0 0 0 0 0 0 0 0 0 0 0 0 0 0 0 0 0 0 0 0 0 0 0 0 0 0 0 0 0 0 0 0 0 0
0 0 0 0 0 0 0 0 0 0 0 0 0 0 0 0 0 0 0 0 0 0 0 0 0 0 0 0 0 0 0 0 0 0 0 0 0 0 0 0 0 0 0 0
0 0 0 0 0 0 0 0 0 0 0 0 0 0 0 0 0 0 0 0 0 0 0 0 0 0 0 0 0 0 0 0 0 0 0 0 0 0 0 0 0 0 0 0
0 0 0 0 0 0 0 0 0 0 0 0 0 0 0 0 0 0 0 0 0 0 0 0 0 0 0 0 0 0 0 0 0 0 0 0 0 0 0 0 0 0 0 0
0 0 0 0 0 0 0 0 0 0 0 0 0 0 0 0 0 0 0 0 0 0 0 0 0 0 0 0 0 0 0 0 0 0 0 0 0 0 0 0 0 0 0 0
0 0 0 0 0 0 0 0 0 0 0 0 0 0 0 0 0 0 0 0 0 0 0 0 0 0 0 0 0 0 0 0 0 0 0 0 0 0 0 0 0 0 0 0
0 0 0 0 0 0 0 0 0 0 0 0 0 0 0 0 0 0 0 0 0 0 0 0 0 0 0 0 0 0 0 0 0 0 0 0 0 0 0 0 0 0 0 0
0 0 0 0 0 0 0 0 0 0 0 0 0 0 0 0 0 0 0 0 0 0 0 0 0 0 0 0 0 0 0 0 0 0 0 0 0 0 0 0 0 0 0 0
0 0 0 0 0 0 0 0 0 0 0 0 0 0 0 0 0 0 0 0 0 0 0 0 0 0 0 0 0 0 0 0 0 0 0 0 0 0 0 0 0 0 0 0
0 0 0 0 0 0 0 0 0 0 0 0 0 0 0 0 0 0 0 0 0 0 0 0 0 0 0 0 0 0 0 0 0 0 0 0 0 0 0 0 0 0 0 0
0 0 0 0 0 0 0 0 0 0 0 0 0 0 0 0 0 0 0 0 0 0 0 0 0 0 0 0 0 0 0 0 0 0 0 0 0 0 0 0 0 0 0 0
Wind_Speed
2 3 3 6 7 5 3 3 5 5 2 2 6 8 8 5 4 5 5 4 4 3 1 1 1 1 2 3 3 2 2 2 1 1 1 1 1 1 1 2 3 3 4 4
3 3 6 4 3 3 4 5 6 5 2 2 5 9 8 6 6 6 6 5 4 2 0 1 1 2 2 2 2 2 1 1 1 0 1 1 1 1 1 1 2 3 3 4
4 4 3 2 2 3 6 7 6 5 4 3 3 7 5 5 4 3 4 4 4 4 3 2 1 0 1 1 0 0 1 1 1 1 1 1 1 1 1 0 1 2 3 3
3 4 2 2 3 4 7 5 5 5 2 4 2 6 6 4 4 5 5 4 4 3 3 2 2 1 1 1 0 1 0 1 1 1 1 1 1 1 1 1 1 1 2 3
3 2 2 3 4 3 5 3 4 4 4 3 3 4 8 2 4 6 5 5 4 3 4 3 3 2 1 1 0 0 1 1 1 1 1 1 0 1 0 1 1 1 1 2
3 2 2 3 3 3 1 1 2 1 1 5 6 6 8 4 6 4 4 4 4 3 2 2 1 1 1 1 1 1 1 1 1 1 1 0 0 0 1 1 1 1 1 1
4 3 2 1 1 2 1 3 2 3 2 7 3 5 9 6 4 5 5 4 3 2 2 2 2 1 1 1 1 1 1 1 1 1 1 1 1 1 2 2 2 2 1 1
2 5 3 1 2 3 3 5 5 5 5 5 2 7 6 3 2 1 0 0 1 1 1 2 2 2 1 0 0 0 0 1 1 0 1 1 1 1 1 1 1 1 2 2
3 5 2 2 1 3 2 3 3 2 1 3 6 6 6 2 2 2 2 2 1 1 1 1 1 1 1 1 0 1 0 1 1 1 1 1 1 1 1 1 1 1 1 1
3 4 4 3 2 1 1 2 2 3 3 5 6 5 5 3 3 2 1 1 1 1 0 0 0 0 0 0 0 0 0 0 1 1 1 1 1 1 1 1 1 1 1 1
2 3 4 1 3 3 1 1 2 2 3 4 5 6 3 4 3 3 3 2 1 1 1 1 1 0 0 1 1 1 1 1 2 2 2 2 2 1 1 1 1 1 1 1
2 2 4 6 3 1 3 4 4 4 5 4 4 7 1 1 1 1 2 3 2 1 1 1 1 0 0 1 1 1 1 1 2 1 1 1 2 1 1 1 1 1 1 1
2 2 2 5 2 1 2 3 3 2 2 4 5 8 2 3 3 3 3 3 3 2 1 0 0 0 0 0 1 1 1 2 2 2 1 1 2 2 2 2 1 1 1 1
1 3 6 8 5 3 4 4 3 4 4 6 9 10 7 6 5 5 4 3 2 2 1 0 1 1 1 1 1 1 1 2 2 2 1 1 2 2 2 2 2 2 1 1
3 4 5 8 7 5 7 8 7 9 10 9 10 11 12 8 6 5 3 2 1 2 2 1 1 1 1 1 1 1 1 2 2 1 2 2 2 2 2 2 2 2 2 1
2 3 2 6 6 7 10 11 11 12 10 12 12 14 9 6 4 4 4 3 3 3 2 2 2 1 1 2 2 2 2 2 1 1 2 2 2 2 2 2 2 2 2 2
3 4 2 5 4 4 10 11 11 8 8 8 12 12 5 4 6 6 5 4 4 3 3 2 2 2 2 2 2 2 2 2 1 1 2 2 2 2 2 2 2 2 2 2
6 5 3 2 1 9 9 3 7 9 9 9 8 7 6 7 6 4 4 4 3 3 3 3 2 2 2 2 1 1 1 1 1 1 1 2 2 2 2 2 2 3 2 2
7 7 4 3 5 11 9 5 5 7 9 8 11 10 7 4 3 3 3 3 3 3 3 3 3 2 2 1 1 1 0 1 1 1 1 2 2 2 2 2 3 3 2 2
4 5 5 5 5 10 8 4 3 2 8 6 8 9 6 2 3 6 2 1 2 2 2 2 2 1 1 2 1 1 1 1 2 2 2 2 2 2 2 2 2 2 2 2
4 5 8 8 8 11 7 3 3 5 8 3 5 7 6 7 7 4 1 1 2 2 2 1 1 1 2 1 1 1 2 2 2 2 2 2 2 2 2 2 2 2 2 2
9 7 8 7 8 12 3 4 7 7 3 3 4 5 5 5 4 3 2 2 2 2 2 1 1 2 2 1 1 2 2 3 2 1 1 2 2 2 2 1 2 1 1 1
9 9 7 10 10 4 4 6 5 2 3 4 4 4 3 3 4 3 3 3 2 2 2 1 1 2 2 2 1 2 3 2 1 1 2 2 2 2 2 1 1 1 1 1
5 3 4 6 8 6 5 4 4 3 4 4 3 3 3 4 4 3 3 3 2 2 2 1 1 2 3 3 2 3 3 2 1 1 2 2 1 2 2 2 1 1 1 1
6 5 5 7 7 5 6 6 5 4 4 3 2 2 3 4 4 4 3 3 3 3 2 1 2 3 4 3 3 2 2 1 2 2 2 1 1 1 2 2 2 2 3 3
6 7 8 9 7 7 7 5 4 4 5 4 4 4 3 3 4 3 3 3 2 2 2 2 3 3 3 3 3 3 2 2 2 2 2 1 1 1 1 2 2 4 4 4
Wind_Direction
32 83 206 224 216 219 209 219 246 258 268 242 241 256 266 261 245 248 241 232 231 229 253 45 48 64 68 58 57 56 52 43 72 125 174 182 197 197 191 183 172 171 169 166
44 250 243 245 235 228 237 245 264 286 310 260 266 268 261 242 235 230 228 225 223 223 333 20 50 61 70 74 60 55 29 44 56 291 239 218 201 202 190 186 176 173 172 170
193 246 254 223 230 230 239 232 245 269 317 297 300 294 261 251 232 235 229 215 202 193 196 209 187 150 92 75 62 27 355 5 4 14 23 71 78 65 106 186 212 190 178 177
247 271 280 242 250 232 244 235 239 248 261 268 228 281 275 251 248 242 236 223 217 203 185 191 194 193 199 232 259 353 0 27 21 66 87 129 171 192 216 207 212 215 189 177
257 267 258 247 252 224 242 249 232 231 222 259 231 238 277 260 246 246 234 222 222 209 193 193 192 202 214 213 159 8 23 33 23 41 101 145 270 244 169 155 181 190 200 183
260 277 251 246 269 240 254 25 24 45 140 251 221 206 267 232 224 237 228 226 225 210 195 187 154 97 57 49 54 59 57 27 24 27 33 158 220 262 160 185 196 200 212 214
308 292 294 337 349 341 78 102 29 339 283 249 220 214 248 242 222 210 220 225 218 185 160 143 119 118 84 49 37 63 82 7 8 14 349 295 250 212 202 210 211 199 205 236
267 282 253 247 206 222 226 171 175 210 236 272 253 234 252 264 287 304 289 115 110 137 172 182 184 175 172 161 20 30 347 314 328 322 312 317 318 264 254 251 235 225 227 226
208 260 306 290 272 187 204 215 200 181 266 264 253 268 293 299 352 17 32 52 66 191 190 208 200 185 185 185 230 241 286 325 304 284 324 352 350 332 311 302 284 261 281 257
184 258 282 300 353 323 206 172 126 166 202 251 264 249 247 254 271 289 325 316 287 286 257 236 260 274 291 271 301 343 18 336 335 353 356 351 318 302 301 314 306 287 281 279
182 225 289 313 214 213 154 159 186 207 205 208 260 264 235 220 236 227 243 264 263 247 215 216 243 240 298 2 11 22 20 20 9 1 355 351 331 317 309 299 287 284 280 248
187 172 258 252 245 216 186 202 180 199 244 231 248 267 313 209 268 258 292 312 311 286 263 251 227 185 33 9 5 9 2 4 350 350 354 345 337 340 339 319 297 285 274 260
157 148 316 325 319 330 235 223 204 197 205 224 228 259 324 356 339 322 309 306 304 305 291 281 122 175 264 304 351 351 348 342 342 351 356 353 343 346 341 324 311 299 284 270
155 183 202 225 237 209 245 253 222 190 218 238 237 256 284 301 299 298 295 288 288 305 307 274 264 257 271 291 313 327 338 340 345 355 351 341 326 320 316 320 325 316 304 275
132 225 242 262 272 251 243 245 229 220 221 231 253 256 265 267 262 268 281 288 293 311 317 300 286 296 309 323 322 322 334 338 344 350 341 330 323 318 319 325 330 326 316 303
160 217 253 276 275 275 269 254 239 239 238 242 256 265 265 268 266 264 265 263 260 268 281 302 317 324 302 291 295 309 314 316 319 305 313 327 333 331 331 327 324 325 327 323
185 174 195 266 298 323 269 239 225 227 226 222 239 249 261 264 254 245 241 238 248 269 278 284 293 286 287 272 267 266 280 303 306 308 325 334 336 330 328 326 329 322 317 320
184 172 190 258 19 246 248 214 214 227 239 230 243 254 247 247 256 242 220 216 243 265 272 274 278 283 285 286 269 267 287 285 289 304 321 325 323 321 324 321 320 318 319 311
192 180 181 187 238 269 278 243 206 218 250 229 239 253 257 264 290 263 234 216 235 250 260 262 266 270 275 276 270 228 249 276 283 291 300 305 303 303 307 307 309 313 317 314
183 179 185 192 217 245 254 226 196 173 263 241 228 239 238 203 246 252 233 246 265 277 272 270 275 278 279 288 265 188 217 239 261 275 282 286 287 282 277 282 296 306 301 302
177 195 209 216 233 256 251 229 127 191 254 263 231 236 223 215 230 237 220 248 245 259 271 272 257 251 263 270 223 211 235 251 266 277 285 290 288 281 274 281 297 301 311 323
186 192 206 201 224 250 214 151 191 229 272 264 253 245 235 235 238 228 224 236 254 272 286 290 274 279 286 273 221 226 251 269 278 277 284 293 298 298 302 298 304 306 303 320
204 200 196 201 220 240 179 200 230 243 249 258 257 254 224 232 235 235 238 247 254 264 276 280 260 277 292 287 247 240 268 276 261 272 283 295 309 312 314 298 288 292 282 279
236 214 211 242 251 245 238 247 255 249 249 263 260 248 227 234 237 237 245 257 263 271 277 285 265 264 279 288 284 266 271 263 226 239 267 283 291 303 312 299 284 267 251 252
220 193 216 246 263 280 259 241 248 259 261 266 271 248 231 230 245 239 245 255 261 275 284 270 252 259 272 284 288 286 275 237 231 243 253 269 273 277 287 288 272 266 257 244
206 196 205 236 232 225 247 241 226 231 244 242 248 266 265 234 241 247 251 257 263 269 275 270 268 269 275 277 281 287 272 223 211 240 253 246 248 260 269 285 305 296 294 295